Chrysopouli, Greece

1:37 PM EEST on August 14, 2018 (GMT +0300)
Megas Alexandros

Weather History for LGKV - May, 2018

Change the Weather History Date:

Thursday, May 17, 2018

  Actual Average Record
Temperature  
Mean Temperature 72 °F -  
Max Temperature 80 °F 71 °F 80 °F (2018)
Min Temperature 63 °F 56 °F 53 °F (2004)
Cooling Degree Days 6    
Growing Degree Days 22 (Base 50)    
Moisture  
Dew Point 62 °F    
Average Humidity 69    
Maximum Humidity 94    
Minimum Humidity 34    
Precipitation  
Precipitation 0.00 in - - ()
Sea Level Pressure  
Sea Level Pressure 29.92 in    
Wind  
Wind Speed 6 mph ()    
Max Wind Speed 13 mph    
Max Gust Speed -    
Visibility 6.2 miles    
Events Rain    
Averages and records for this station are not official NWS values.
T = Trace of Precipitation, MM = Missing Value Source: Averaged Metar Reports

Daily Weather History Graph

Daily Weather History Graph

Search for Another Location

Airport or City:

Astronomy

May. 17, 2018 Rise Set
Actual Time 6:02 AM EEST 8:34 PM EEST
Civil Twilight 5:30 AM EEST 9:05 PM EEST
Nautical Twilight 4:51 AM EEST 9:45 PM EEST
Astronomical Twilight 4:07 AM EEST 10:29 PM EEST
Moon 7:48 AM EEST (5/17) 10:48 PM EEST (5/17)
Length of Visible Light 15h 35m
Length of Day
14h 32m
Waxing Crescent, 5% of the Moon is Illuminated
May 17
Waxing Crescent
May 22
First Quarter
May 29
Full
Jun 6
Last Quarter
Jun 13
New

Hourly Weather History & Observations

Time (EEST) Temp. Heat Index Dew Point Humidity Pressure Visibility Wind Dir Wind Speed Gust Speed Precip Events Conditions
4:50 AM 64.4 °F - 60.8 °F 88% 29.89 in 6.2 mi Calm Calm - N/A   Scattered Clouds
5:20 AM 64.4 °F - 60.8 °F 88% 29.89 in 6.2 mi NE 6.9 mph - N/A   Scattered Clouds
5:50 AM 64.4 °F - 59.0 °F 83% 29.89 in 6.2 mi ENE 4.6 mph - N/A   Scattered Clouds
6:00 AM 65 °F - 59 °F 75% 29.90 in 6 mi ENE 4.6 mph - -   Partly Cloudy
6:20 AM 64.4 °F - 59.0 °F 83% 29.89 in 6.2 mi Calm Calm - N/A   Scattered Clouds
6:50 AM 64.4 °F - 59.0 °F 83% 29.92 in 6.2 mi Calm Calm - N/A   Scattered Clouds
7:20 AM 64.4 °F - 59.0 °F 83% 29.92 in 6.2 mi Calm Calm - N/A   Scattered Clouds
7:50 AM 64.4 °F - 60.8 °F 88% 29.92 in 6.2 mi NE 5.8 mph - N/A Rain Light Rain
8:20 AM 64.4 °F - 60.8 °F 88% 29.92 in 6.2 mi NE 4.6 mph - N/A   Mostly Cloudy
8:50 AM 66.2 °F - 64.4 °F 94% 29.92 in 6.2 mi NE 5.8 mph - N/A   Mostly Cloudy
9:00 AM 67 °F - 64 °F 85% 29.94 in 6 mi NE 5.8 mph - -   Partly Cloudy
9:20 AM 68.0 °F - 64.4 °F 88% 29.92 in 6.2 mi ENE 8.1 mph - N/A   Scattered Clouds
9:50 AM 73.4 °F - 64.4 °F 73% 29.92 in 6.2 mi NE 5.8 mph - N/A   Partly Cloudy
10:20 AM 73.4 °F - 64.4 °F 73% 29.92 in 6.2 mi East 3.5 mph - N/A   Partly Cloudy
10:50 AM 75.2 °F - 62.6 °F 65% 29.95 in 6.2 mi SSW 6.9 mph - N/A   Partly Cloudy
11:20 AM 75.2 °F - 62.6 °F 65% 29.95 in 6.2 mi SW 6.9 mph - N/A   Partly Cloudy
11:50 AM 75.2 °F - 59.0 °F 57% 29.95 in 6.2 mi SW 6.9 mph - N/A   Partly Cloudy
12:00 PM 75 °F - 60 °F 49% 29.95 in 6 mi SW 6.9 mph - -   Scattered Clouds
12:20 PM 75.2 °F - 59.0 °F 57% 29.95 in 6.2 mi SW 6.9 mph - N/A   Partly Cloudy
12:50 PM 77.0 °F - 62.6 °F 61% 29.95 in 6.2 mi WSW 10.4 mph - N/A   Partly Cloudy
1:20 PM 77.0 °F - 62.6 °F 61% 29.95 in 6.2 mi SW 10.4 mph - N/A   Partly Cloudy
1:50 PM 77.0 °F - 62.6 °F 61% 29.95 in 6.2 mi WSW 10.4 mph - N/A   Partly Cloudy
2:20 PM 77.0 °F - 62.6 °F 61% 29.92 in 6.2 mi SW 10.4 mph - N/A   Partly Cloudy
2:50 PM 78.8 °F - 57.2 °F 47% 29.92 in 6.2 mi SSW 9.2 mph - N/A   Partly Cloudy
3:00 PM 80 °F - 56 °F 34% 29.94 in 6 mi SSW 9.2 mph - -   Scattered Clouds
3:20 PM 78.8 °F - 57.2 °F 47% 29.92 in 6.2 mi SSW 10.4 mph - N/A   Partly Cloudy
3:50 PM 80.6 °F 80.8 °F 57.2 °F 45% 29.92 in 6.2 mi SW 10.4 mph - N/A   Partly Cloudy
4:20 PM 80.6 °F 80.8 °F 57.2 °F 45% 29.92 in 6.2 mi SW 11.5 mph - N/A   Partly Cloudy
4:50 PM 78.8 °F - 59.0 °F 51% 29.92 in 6.2 mi WSW 9.2 mph - N/A   Partly Cloudy
5:20 PM 78.8 °F - 59.0 °F 51% 29.92 in 6.2 mi WSW 11.5 mph - N/A   Partly Cloudy
5:50 PM 78.8 °F - 60.8 °F 54% 29.89 in 6.2 mi West 9.2 mph - N/A   Partly Cloudy
6:00 PM 80 °F - 61 °F 42% 29.91 in 6 mi West 9.2 mph - -   Scattered Clouds
6:20 PM 78.8 °F - 60.8 °F 54% 29.89 in 6.2 mi WSW 10.4 mph - N/A   Partly Cloudy
6:50 PM 77.0 °F - 64.4 °F 65% 29.89 in 6.2 mi WSW 9.2 mph - N/A   Partly Cloudy
7:20 PM 77.0 °F - 64.4 °F 65% 29.89 in 6.2 mi West 9.2 mph - N/A   Partly Cloudy
7:50 PM 75.2 °F - 64.4 °F 69% 29.92 in 6.2 mi West 12.7 mph - N/A   Partly Cloudy
8:20 PM 73.4 °F - 64.4 °F 73% 29.92 in 6.2 mi WNW 10.4 mph - N/A   Partly Cloudy
8:50 PM 71.6 °F - 64.4 °F 78% 29.92 in 6.2 mi WNW 8.1 mph - N/A   Partly Cloudy
9:00 PM 71 °F - 64 °F 74% 29.93 in 6 mi WNW 8.1 mph - -   Scattered Clouds
9:20 PM 69.8 °F - 64.4 °F 83% 29.92 in 6.2 mi WNW 6.9 mph - N/A   Partly Cloudy
9:50 PM 69.8 °F - 64.4 °F 83% 29.92 in 6.2 mi West 4.6 mph - N/A   Partly Cloudy
10:20 PM 69.8 °F - 64.4 °F 83% 29.92 in 6.2 mi WSW 6.9 mph - N/A   Partly Cloudy
10:50 PM 69.8 °F - 64.4 °F 83% 29.92 in 6.2 mi West 6.9 mph - N/A   Partly Cloudy
11:20 PM 69.8 °F - 64.4 °F 83% 29.95 in 6.2 mi West 6.9 mph - N/A   Scattered Clouds